Tracking 29892 objects as of 21-Nov-2024
HD Live streaming from Space Station
objects crossing your sky now

STARLINK-1167

Track STARLINK-1167 now!
10-day predictions
STARLINK-1167 is classified as:


NORAD ID: 45071
Int'l Code: 2020-006AD
Perigee: 553.2 km
Apogee: 555.2 km
Inclination: 53.1 °
Period: 95.6 minutes
Semi major axis: 6925 km
RCS: Unknown
Launch date: January 29, 2020
Source: United States (US)
Launch site: AIR FORCE EASTERN TEST RANGE (AFETR)
Your satellite tracking list
Your tracking list is empty




NASA's NSSDC Master Catalog

Two Line Element Set (TLE):
1 45071U 20006AD  24326.13914746  .00020697  00000-0  14023-2 0  9993
2 45071  53.0532 232.4684 0001469  86.9742 273.1415 15.06451918265705
Source of the keplerian elements: AFSPC